Franklin, NC

10:55 AM EDT on July 16, 2018 (GMT -0400)
Franklin

Weather History for K1A5 - September, 2017

Change the Weather History Date:

Tuesday, September 19, 2017

  Actual Average (WUND) Record (WUND)
Temperature  
Mean Temperature 68 °F -  
Max Temperature 82 °F - - (-1)
Min Temperature 54 °F - - (-1)
Cooling Degree Days 3    
Growing Degree Days 18 (Base 50)    
Moisture  
Dew Point 59 °F    
Average Humidity 83    
Maximum Humidity 97    
Minimum Humidity 45    
Precipitation  
Precipitation 0.03 in - - ()
Sea Level Pressure  
Sea Level Pressure 30.07 in    
Wind  
Wind Speed 0 mph (West)    
Max Wind Speed 6 mph    
Max Gust Speed -    
Visibility 6 miles    
Events Fog    
Averages and records for this station are not official NWS values.
T = Trace of Precipitation, MM = Missing Value Source: NWS Daily Summary

Daily Weather History Graph

Daily Weather History Graph

Search for Another Location

Airport or City:

Astronomy

Sep. 19, 2017 Rise Set
Actual Time 7:19 AM EDT 7:34 PM EDT
Civil Twilight 6:54 AM EDT 7:59 PM EDT
Nautical Twilight 6:24 AM EDT 8:29 PM EDT
Astronomical Twilight 5:54 AM EDT 8:59 PM EDT
Moon 6:34 AM EDT (9/19) 7:32 PM EDT (9/19)
Length of Visible Light 13h 05m
Length of Day
12h 14m
Waning Crescent, 0% of the Moon is Illuminated
Sep 19
Waning Crescent
Sep 20
New
Sep 27
First Quarter
Oct 5
Full
Oct 12
Last Quarter

Hourly Weather History & Observations

Time (EDT) Temp. Heat Index Dew Point Humidity Pressure Visibility Wind Dir Wind Speed Gust Speed Precip Events Conditions
12:05 AM 57.2 °F - 55.8 °F 95% 30.11 in 5.0 mi Calm Calm - N/A   Clear
12:25 AM 56.3 °F - 55.0 °F 96% 30.10 in 4.0 mi Calm Calm - N/A   Clear
12:45 AM 56.3 °F - 55.0 °F 96% 30.10 in 3.0 mi Calm Calm - N/A   Clear
1:05 AM 55.6 °F - 54.5 °F 96% 30.10 in 1.8 mi Calm Calm - N/A   Mist
1:25 AM 55.8 °F - 54.5 °F 96% 30.09 in 4.0 mi Calm Calm - N/A   Clear
1:45 AM 54.7 °F - 53.2 °F 95% 30.09 in 3.0 mi Calm Calm - N/A   Clear
2:05 AM 54.9 °F - 53.8 °F 96% 30.08 in 3.0 mi Calm Calm - N/A   Clear
2:25 AM 54.5 °F - 53.4 °F 96% 30.08 in 3.0 mi Calm Calm - N/A   Clear
2:45 AM 54.1 °F - 53.1 °F 96% 30.08 in 1.8 mi Calm Calm - N/A   Mostly Cloudy
3:05 AM 54.3 °F - 53.1 °F 95% 30.08 in 0.5 mi Calm Calm - N/A Fog Fog
3:25 AM 54.7 °F - 53.6 °F 96% 30.07 in 3.0 mi Calm Calm - N/A   Overcast
3:45 AM 55.4 °F - 54.5 °F 97% 30.08 in 0.5 mi Calm Calm - N/A Fog Fog
4:05 AM 55.8 °F - 54.7 °F 96% 30.08 in 0.2 mi Calm Calm - N/A Fog Fog
4:25 AM 55.8 °F - 54.7 °F 96% 30.08 in 0.2 mi Calm Calm - N/A Fog Fog
4:45 AM 55.6 °F - 54.5 °F 96% 30.08 in 0.2 mi Calm Calm - N/A Fog Fog
5:05 AM 55.6 °F - 54.5 °F 96% 30.08 in 0.2 mi Calm Calm - N/A Fog Fog
5:25 AM 55.8 °F - 54.7 °F 96% 30.09 in 0.2 mi Calm Calm - N/A Fog Fog
5:45 AM 55.9 °F - 54.9 °F 96% 30.09 in 0.2 mi Calm Calm - N/A Fog Fog
6:05 AM 56.1 °F - 54.9 °F 96% 30.10 in 0.8 mi Calm Calm - N/A   Overcast
6:25 AM 56.3 °F - 55.4 °F 97% 30.10 in 0.5 mi Calm Calm - N/A Fog Fog
6:45 AM 56.3 °F - 55.4 °F 97% 30.11 in 0.2 mi Calm Calm - N/A Fog Fog
7:05 AM 56.7 °F - 55.6 °F 96% 30.11 in 0.2 mi Calm Calm - N/A Fog Fog
7:25 AM 56.3 °F - 55.4 °F 97% 30.11 in 0.2 mi Calm Calm - N/A Fog Fog
7:45 AM 56.3 °F - 55.0 °F 96% 30.11 in 0.2 mi Calm Calm - N/A Fog Fog
8:05 AM 56.3 °F - 55.2 °F 96% 30.11 in 0.2 mi Calm Calm - N/A Fog Fog
8:25 AM 56.7 °F - 55.6 °F 96% 30.11 in 0.8 mi Calm Calm - N/A   Overcast
8:45 AM 57.0 °F - 55.9 °F 96% 30.12 in 0.2 mi Calm Calm - N/A Fog Fog
9:05 AM 57.2 °F - 56.1 °F 96% 30.12 in 0.2 mi Calm Calm - N/A Fog Fog
9:25 AM 57.7 °F - 56.7 °F 96% 30.13 in 0.2 mi Calm Calm - N/A Fog Fog
9:45 AM 58.1 °F - 57.2 °F 97% 30.13 in 0.2 mi Calm Calm - N/A Fog Fog
10:05 AM 58.3 °F - 57.2 °F 96% 30.13 in 1.5 mi Calm Calm - N/A   Overcast
10:25 AM 60.6 °F - 59.4 °F 96% 30.13 in 7.0 mi Calm Calm - 0.01 in   Overcast
10:45 AM 62.8 °F - 60.3 °F 91% 30.12 in 10.0 mi Calm Calm - 0.01 in   Scattered Clouds
11:05 AM 65.5 °F - 59.7 °F 82% 30.12 in 10.0 mi Calm Calm - N/A   Clear
11:25 AM 66.4 °F - 59.2 °F 78% 30.12 in 10.0 mi Calm Calm - N/A   Clear
12:05 PM 71.4 °F - 61.3 °F 70% 30.11 in 10.0 mi Calm Calm - N/A   Clear
12:25 PM 73.6 °F - 61.7 °F 66% 30.11 in 10.0 mi Calm Calm - N/A   Clear
12:45 PM 75.6 °F - 61.9 °F 62% 30.10 in 10.0 mi Calm Calm - N/A   Clear
1:05 PM 76.5 °F - 62.8 °F 62% 30.10 in 10.0 mi Calm Calm - N/A   Clear
1:25 PM 77.9 °F - 61.9 °F 58% 30.08 in 10.0 mi Calm Calm - N/A   Clear
1:45 PM 79.0 °F - 62.8 °F 57% 30.07 in 10.0 mi Calm Calm - N/A   Clear
2:05 PM 79.9 °F - 62.1 °F 54% 30.06 in 10.0 mi ENE 4.6 mph - N/A   Scattered Clouds
2:25 PM 80.2 °F 81.4 °F 62.2 °F 54% 30.04 in 10.0 mi Calm Calm - 0.01 in   Clear
2:45 PM 79.5 °F - 61.7 °F 54% 30.04 in 10.0 mi Calm Calm - 0.01 in   Clear
3:05 PM 81.3 °F 81.6 °F 58.6 °F 46% 30.03 in 10.0 mi NNW 4.6 mph - N/A   Clear
3:25 PM 80.6 °F 80.8 °F 57.7 °F 45% 30.03 in 10.0 mi WNW 3.5 mph - N/A   Clear
3:45 PM 80.6 °F 81.2 °F 60.1 °F 49% 30.02 in 10.0 mi West 4.6 mph - N/A   Clear
4:05 PM 81.9 °F 82.5 °F 61.0 °F 49% 30.01 in 10.0 mi West 4.6 mph - N/A   Clear
4:25 PM 82.0 °F 82.5 °F 60.4 °F 48% 30.01 in 10.0 mi Calm Calm - N/A   Scattered Clouds
5:05 PM 81.9 °F 82.8 °F 61.9 °F 51% 30.01 in 10.0 mi SSW 3.5 mph - N/A   Clear
5:25 PM 80.8 °F 81.2 °F 59.0 °F 47% 30.02 in 10.0 mi NW 5.8 mph - N/A   Clear
5:45 PM 80.1 °F 80.9 °F 60.1 °F 50% 30.02 in 10.0 mi NW 4.6 mph - N/A   Clear
6:05 PM 75.4 °F - 66.0 °F 73% 30.03 in 10.0 mi WSW 3.5 mph - N/A   Clear
6:25 PM 73.8 °F - 66.0 °F 77% 30.03 in 10.0 mi Calm Calm - N/A   Clear
6:45 PM 73.2 °F - 66.6 °F 80% 30.04 in 10.0 mi Calm Calm - 0.01 in   Clear
7:05 PM 71.2 °F - 66.6 °F 85% 30.04 in 10.0 mi Calm Calm - N/A   Clear
7:25 PM 69.8 °F - 66.2 °F 88% 30.02 in 10.0 mi Calm Calm - N/A   Clear
7:45 PM 69.8 °F - 65.5 °F 86% 30.02 in 10.0 mi South 3.5 mph - N/A   Clear
8:05 PM 68.5 °F - 64.9 °F 88% 30.01 in 10.0 mi Calm Calm - N/A   Clear
8:25 PM 68.2 °F - 64.4 °F 88% 30.02 in 10.0 mi Calm Calm - N/A   Clear
8:45 PM 67.1 °F - 63.9 °F 89% 30.03 in 10.0 mi Calm Calm - N/A   Clear
9:05 PM 66.4 °F - 63.7 °F 91% 30.04 in 10.0 mi Calm Calm - N/A   Clear
9:25 PM 66.0 °F - 63.3 °F 91% 30.05 in 7.0 mi Calm Calm - N/A   Clear
9:45 PM 65.8 °F - 63.9 °F 93% 30.04 in 7.0 mi Calm Calm - N/A   Clear
10:05 PM 65.5 °F - 63.5 °F 93% 30.06 in 7.0 mi Calm Calm - N/A   Scattered Clouds
10:25 PM 65.5 °F - 63.5 °F 93% 30.06 in 7.0 mi SSE 3.5 mph - N/A   Scattered Clouds
10:45 PM 64.6 °F - 62.6 °F 93% 30.07 in 7.0 mi Calm Calm - N/A   Clear
11:05 PM 63.1 °F - 61.7 °F 95% 30.07 in 2.5 mi Calm Calm - N/A   Clear
11:25 PM 62.4 °F - 61.2 °F 96% 30.08 in 2.5 mi Calm Calm - N/A   Clear
11:45 PM 62.2 °F - 61.0 °F 96% 30.08 in 0.5 mi Calm Calm - N/A Fog Fog